Data supplied by UK-AIR on 14/3/2017
All Data GMT hour ending 
Status: R =Ratified P=Provisional,P*=As supplied
,,Exeter Roadside,,,,,,,,,,,,,,,,,,,,,,,
Date,time,"Nitric oxide",status,unit,"Nitrogen dioxide",status,unit,"Nitrogen oxides as nitrogen dioxide",status,unit,"Ozone",status,unit
 
01-01-2016,01:00,55.36110,R,ugm-3,55.71017,R,ugm-3,140.59600,R,ugm-3,,,
01-01-2016,02:00,60.19376,R,ugm-3,59.68865,R,ugm-3,151.98446,R,ugm-3,,,
01-01-2016,03:00,44.08457,R,ugm-3,63.68960,R,ugm-3,131.28500,R,ugm-3,,,
01-01-2016,04:00,22.23000,R,ugm-3,42.55121,R,ugm-3,76.63674,R,ugm-3,,,
01-01-2016,05:00,16.86038,R,ugm-3,31.43513,R,ugm-3,59.20845,R,ugm-3,,,
01-01-2016,06:00,14.49799,R,ugm-3,30.41258,R,ugm-3,52.64252,R,ugm-3,,,
01-01-2016,07:00,11.65197,R,ugm-3,24.89310,R,ugm-3,42.75920,R,ugm-3,,,
01-01-2016,08:00,4.13480,R,ugm-3,12.56799,R,ugm-3,18.90793,R,ugm-3,,,
01-01-2016,09:00,5.74569,R,ugm-3,12.74873,R,ugm-3,21.55866,R,ugm-3,,,
01-01-2016,10:00,4.88630,R,ugm-3,11.27275,R,ugm-3,18.76497,R,ugm-3,,,
01-01-2016,11:00,6.22870,R,ugm-3,13.44009,R,ugm-3,22.99064,R,ugm-3,,,
01-01-2016,12:00,10.04108,R,ugm-3,16.04635,R,ugm-3,31.44246,R,ugm-3,,,
01-01-2016,13:00,7.78596,R,ugm-3,12.41356,R,ugm-3,24.35186,R,ugm-3,,,
01-01-2016,14:00,7.57080,R,ugm-3,10.30790,R,ugm-3,21.91629,R,ugm-3,,,
01-01-2016,15:00,3.86632,R,ugm-3,9.75758,R,ugm-3,15.68585,R,ugm-3,,,
01-01-2016,16:00,4.13480,R,ugm-3,8.84388,R,ugm-3,15.18382,R,ugm-3,,,
01-01-2016,17:00,5.31599,R,ugm-3,8.68084,R,ugm-3,16.83191,R,ugm-3,,,
01-01-2016,18:00,7.67869,R,ugm-3,9.57015,R,ugm-3,21.34398,R,ugm-3,,,
01-01-2016,19:00,4.08117,R,ugm-3,8.63972,R,ugm-3,14.89742,R,ugm-3,,,
01-01-2016,20:00,3.59753,R,ugm-3,5.51374,R,ugm-3,11.02987,R,ugm-3,,,
01-01-2016,21:00,2.89997,R,ugm-3,3.79010,R,ugm-3,8.23666,R,ugm-3,,,
01-01-2016,22:00,1.66452,R,ugm-3,3.24934,R,ugm-3,5.80157,R,ugm-3,,,
01-01-2016,23:00,2.36270,R,ugm-3,2.53693,R,ugm-3,6.15968,R,ugm-3,,,
01-01-2016,24:00,3.27541,R,ugm-3,1.13746,R,ugm-3,6.15968,R,ugm-3,,,
02-01-2016,01:00,0.48395,R,ugm-3,0.90413,R,ugm-3,1.64618,R,ugm-3,,,
02-01-2016,02:00,0.80607,R,ugm-3,1.05427,R,ugm-3,2.29022,R,ugm-3,,,
02-01-2016,03:00,0.53759,R,ugm-3,1.89577,R,ugm-3,2.72005,R,ugm-3,,,
02-01-2016,04:00,1.23639,R,ugm-3,2.61343,R,ugm-3,4.50920,R,ugm-3,,,
02-01-2016,05:00,7.52621,R,ugm-3,3.27563,R,ugm-3,14.81566,R,ugm-3,,,
02-01-2016,06:00,15.21394,R,ugm-3,10.24144,R,ugm-3,33.56916,R,ugm-3,,,
02-01-2016,07:00,128.32191,R,ugm-3,35.07477,R,ugm-3,231.83229,R,ugm-3,,,
02-01-2016,08:00,84.56195,R,ugm-3,48.27628,R,ugm-3,177.93613,R,ugm-3,,,
02-01-2016,09:00,12.25722,R,ugm-3,21.86035,R,ugm-3,40.65449,R,ugm-3,,,
02-01-2016,10:00,16.71881,R,ugm-3,17.81111,R,ugm-3,43.44626,R,ugm-3,,,
02-01-2016,11:00,9.13897,R,ugm-3,15.54815,R,ugm-3,29.56103,R,ugm-3,,,
02-01-2016,12:00,8.70896,R,ugm-3,12.19936,R,ugm-3,25.55291,R,ugm-3,,,
02-01-2016,13:00,7.57984,R,ugm-3,10.85200,R,ugm-3,22.47427,R,ugm-3,,,
02-01-2016,14:00,10.05261,R,ugm-3,10.42504,R,ugm-3,25.83883,R,ugm-3,,,
02-01-2016,15:00,14.40725,R,ugm-3,11.04899,R,ugm-3,33.13980,R,ugm-3,,,
02-01-2016,16:00,11.98780,R,ugm-3,9.81973,R,ugm-3,28.20077,R,ugm-3,,,
02-01-2016,17:00,14.13846,R,ugm-3,9.52808,R,ugm-3,31.20674,R,ugm-3,,,
02-01-2016,18:00,6.34346,R,ugm-3,9.24120,R,ugm-3,18.96770,R,ugm-3,,,
02-01-2016,19:00,4.40827,R,ugm-3,7.62753,R,ugm-3,14.38678,R,ugm-3,,,
02-01-2016,20:00,7.52621,R,ugm-3,6.92660,R,ugm-3,18.46662,R,ugm-3,,,
02-01-2016,21:00,12.04206,R,ugm-3,13.02891,R,ugm-3,31.49314,R,ugm-3,,,
02-01-2016,22:00,8.97775,R,ugm-3,12.50249,R,ugm-3,26.26819,R,ugm-3,,,
02-01-2016,23:00,5.75224,R,ugm-3,13.36838,R,ugm-3,22.18835,R,ugm-3,,,
02-01-2016,24:00,3.60189,R,ugm-3,10.22423,R,ugm-3,15.74705,R,ugm-3,,,
03-01-2016,01:00,3.01410,R,ugm-3,9.76523,R,ugm-3,14.38678,R,ugm-3,,,
03-01-2016,02:00,3.73151,R,ugm-3,8.30726,R,ugm-3,14.02883,R,ugm-3,,,
03-01-2016,03:00,1.56068,R,ugm-3,5.26559,R,ugm-3,7.65861,R,ugm-3,,,
03-01-2016,04:00,1.23763,R,ugm-3,3.97131,R,ugm-3,5.86898,R,ugm-3,,,
03-01-2016,05:00,0.80700,R,ugm-3,3.70117,R,ugm-3,4.93855,R,ugm-3,,,
03-01-2016,06:00,0.80732,R,ugm-3,4.70284,R,ugm-3,5.94070,R,ugm-3,,,
03-01-2016,07:00,1.39947,R,ugm-3,4.36767,R,ugm-3,6.51350,R,ugm-3,,,
03-01-2016,08:00,3.76716,R,ugm-3,7.46544,R,ugm-3,13.24167,R,ugm-3,,,
03-01-2016,09:00,6.24336,R,ugm-3,11.39850,R,ugm-3,20.97152,R,ugm-3,,,
03-01-2016,10:00,40.90396,R,ugm-3,36.84240,R,ugm-3,99.56093,R,ugm-3,,,
03-01-2016,11:00,31.21618,R,ugm-3,32.58661,R,ugm-3,80.45075,R,ugm-3,,,
03-01-2016,12:00,18.08398,R,ugm-3,22.94713,R,ugm-3,50.67551,R,ugm-3,,,
03-01-2016,13:00,23.14303,R,ugm-3,23.49267,R,ugm-3,58.97815,R,ugm-3,,,
03-01-2016,14:00,23.03545,R,ugm-3,25.51849,R,ugm-3,60.83902,R,ugm-3,,,
03-01-2016,15:00,25.29556,R,ugm-3,29.13933,R,ugm-3,67.92531,R,ugm-3,,,
03-01-2016,16:00,18.51430,R,ugm-3,26.58184,R,ugm-3,54.97003,R,ugm-3,,,
03-01-2016,17:00,12.10972,R,ugm-3,27.02506,R,ugm-3,45.59304,R,ugm-3,,,
03-01-2016,18:00,5.11268,R,ugm-3,21.64998,R,ugm-3,29.48932,R,ugm-3,,,
03-01-2016,19:00,4.46721,R,ugm-3,15.19529,R,ugm-3,22.04491,R,ugm-3,,,
03-01-2016,20:00,2.96016,R,ugm-3,11.35069,R,ugm-3,15.88953,R,ugm-3,,,
03-01-2016,21:00,3.01410,R,ugm-3,10.26630,R,ugm-3,14.88786,R,ugm-3,,,
03-01-2016,22:00,3.60594,R,ugm-3,9.85989,R,ugm-3,15.38893,R,ugm-3,,,
03-01-2016,23:00,3.06773,R,ugm-3,8.96723,R,ugm-3,13.67103,R,ugm-3,,,
03-01-2016,24:00,1.77647,R,ugm-3,6.50919,R,ugm-3,9.23307,R,ugm-3,,,
04-01-2016,01:00,0.75462,R,ugm-3,3.84938,R,ugm-3,5.00645,R,ugm-3,,,
04-01-2016,02:00,0.80825,R,ugm-3,3.33827,R,ugm-3,4.57757,R,ugm-3,,,
04-01-2016,03:00,0.80825,R,ugm-3,2.12240,R,ugm-3,3.36170,R,ugm-3,,,
04-01-2016,04:00,0.75399,R,ugm-3,2.63495,R,ugm-3,3.79105,R,ugm-3,,,
04-01-2016,05:00,1.67014,R,ugm-3,6.09418,R,ugm-3,8.65502,R,ugm-3,,,
04-01-2016,06:00,7.54336,R,ugm-3,14.46950,R,ugm-3,26.03582,R,ugm-3,,,
04-01-2016,07:00,15.14129,R,ugm-3,22.41833,R,ugm-3,45.63464,R,ugm-3,,,
04-01-2016,08:00,26.88742,R,ugm-3,34.37814,R,ugm-3,75.60495,R,ugm-3,,,
04-01-2016,09:00,20.20626,R,ugm-3,28.74344,R,ugm-3,59.72594,R,ugm-3,,,
04-01-2016,10:00,26.83410,R,ugm-3,,,,,,,,,
04-01-2016,11:00,,,,,,,,,,,,
04-01-2016,12:00,18.48187,R,ugm-3,,,,,,,,,
04-01-2016,13:00,12.77017,R,ugm-3,,,,,,,,,
04-01-2016,14:00,12.28528,R,ugm-3,18.92945,R,ugm-3,37.76662,R,ugm-3,,,
04-01-2016,15:00,17.02689,R,ugm-3,24.39107,R,ugm-3,50.49861,R,ugm-3,,,
04-01-2016,16:00,29.52796,R,ugm-3,41.12975,R,ugm-3,86.40532,R,ugm-3,,,
04-01-2016,17:00,10.39936,R,ugm-3,30.40445,R,ugm-3,46.34992,R,ugm-3,,,
04-01-2016,18:00,8.67497,R,ugm-3,24.39346,R,ugm-3,37.69490,R,ugm-3,,,
04-01-2016,19:00,4.09520,R,ugm-3,17.46830,R,ugm-3,23.74751,R,ugm-3,,,
04-01-2016,20:00,4.36430,R,ugm-3,14.19458,R,ugm-3,20.88641,R,ugm-3,,,
04-01-2016,21:00,5.98112,R,ugm-3,16.22135,R,ugm-3,25.39226,R,ugm-3,,,
04-01-2016,22:00,12.17770,R,ugm-3,25.03128,R,ugm-3,43.70349,R,ugm-3,,,
04-01-2016,23:00,6.57390,R,ugm-3,23.46638,R,ugm-3,33.54621,R,ugm-3,,,
04-01-2016,24:00,3.82547,R,ugm-3,12.44512,R,ugm-3,18.31075,R,ugm-3,,,
05-01-2016,01:00,2.69729,R,ugm-3,12.67366,R,ugm-3,16.80944,R,ugm-3,,,
05-01-2016,02:00,2.75123,R,ugm-3,15.16565,R,ugm-3,19.38414,R,ugm-3,,,
05-01-2016,03:00,3.66831,R,ugm-3,15.11783,R,ugm-3,20.74250,R,ugm-3,,,
05-01-2016,04:00,5.93403,R,ugm-3,14.21944,R,ugm-3,23.31816,R,ugm-3,,,
05-01-2016,05:00,19.20468,R,ugm-3,20.47953,R,ugm-3,49.92629,R,ugm-3,,,
05-01-2016,06:00,69.21237,R,ugm-3,41.22250,R,ugm-3,147.34665,R,ugm-3,,,
05-01-2016,07:00,121.70156,R,ugm-3,68.17441,R,ugm-3,254.78086,R,ugm-3,,,
05-01-2016,08:00,222.52612,R,ugm-3,63.85790,R,ugm-3,405.05985,R,ugm-3,,,
05-01-2016,09:00,80.64886,R,ugm-3,81.98170,R,ugm-3,205.64156,R,ugm-3,,,
05-01-2016,10:00,91.22222,R,ugm-3,67.19999,R,ugm-3,207.07211,R,ugm-3,,,
05-01-2016,11:00,68.83475,R,ugm-3,55.74890,R,ugm-3,161.29403,R,ugm-3,,,
05-01-2016,12:00,45.42230,R,ugm-3,49.16033,R,ugm-3,118.80689,R,ugm-3,,,
05-01-2016,13:00,41.32243,R,ugm-3,36.42069,R,ugm-3,99.78086,R,ugm-3,,,
05-01-2016,14:00,52.59708,R,ugm-3,44.81179,R,ugm-3,125.45952,R,ugm-3,,,
05-01-2016,15:00,39.21854,R,ugm-3,38.86009,R,ugm-3,98.99435,R,ugm-3,,,
05-01-2016,16:00,64.57303,R,ugm-3,51.41183,R,ugm-3,150.42243,R,ugm-3,,,
05-01-2016,17:00,76.87266,R,ugm-3,60.23371,R,ugm-3,178.10348,R,ugm-3,,,
05-01-2016,18:00,49.14456,R,ugm-3,62.90834,R,ugm-3,138.26228,R,ugm-3,,,
05-01-2016,19:00,14.07983,R,ugm-3,35.27558,R,ugm-3,56.86436,R,ugm-3,,,
05-01-2016,20:00,9.27867,R,ugm-3,21.46542,R,ugm-3,35.69251,R,ugm-3,,,
05-01-2016,21:00,8.30764,R,ugm-3,17.44630,R,ugm-3,30.18451,R,ugm-3,,,
05-01-2016,22:00,5.82614,R,ugm-3,14.59907,R,ugm-3,23.53236,R,ugm-3,,,
05-01-2016,23:00,3.88409,R,ugm-3,9.78053,R,ugm-3,15.73605,R,ugm-3,,,
05-01-2016,24:00,1.78021,R,ugm-3,9.07242,R,ugm-3,11.80204,R,ugm-3,,,
06-01-2016,01:00,1.72938,R,ugm-3,6.92612,R,ugm-3,9.57780,R,ugm-3,,,
06-01-2016,02:00,6.12424,R,ugm-3,8.43158,R,ugm-3,17.82195,R,ugm-3,,,
06-01-2016,03:00,4.37709,R,ugm-3,10.51493,R,ugm-3,17.22637,R,ugm-3,,,
06-01-2016,04:00,3.99853,R,ugm-3,11.09537,R,ugm-3,17.22637,R,ugm-3,,,
06-01-2016,05:00,10.21352,R,ugm-3,18.29211,R,ugm-3,33.95261,R,ugm-3,,,
06-01-2016,06:00,37.01706,R,ugm-3,28.80177,R,ugm-3,85.56047,R,ugm-3,,,
06-01-2016,07:00,56.36299,R,ugm-3,27.51609,R,ugm-3,113.93814,R,ugm-3,,,
06-01-2016,08:00,120.88582,R,ugm-3,39.94782,R,ugm-3,225.30350,R,ugm-3,,,
06-01-2016,09:00,53.01243,R,ugm-3,43.59066,R,ugm-3,124.87525,R,ugm-3,,,
06-01-2016,10:00,52.74239,R,ugm-3,35.99851,R,ugm-3,116.86905,R,ugm-3,,,
06-01-2016,11:00,22.80439,R,ugm-3,29.00832,R,ugm-3,63.97456,R,ugm-3,,,
06-01-2016,12:00,31.01879,R,ugm-3,23.56104,R,ugm-3,71.12253,R,ugm-3,,,
06-01-2016,13:00,37.34136,R,ugm-3,31.95070,R,ugm-3,89.20665,R,ugm-3,,,
06-01-2016,14:00,42.96107,R,ugm-3,40.06066,R,ugm-3,105.93338,R,ugm-3,,,
06-01-2016,15:00,67.33300,R,ugm-3,54.22655,R,ugm-3,157.46903,R,ugm-3,,,
06-01-2016,16:00,64.57678,R,ugm-3,67.60257,R,ugm-3,166.61891,R,ugm-3,,,
06-01-2016,17:00,43.50146,R,ugm-3,52.24089,R,ugm-3,118.94220,R,ugm-3,,,
06-01-2016,18:00,13.99627,R,ugm-3,31.21965,R,ugm-3,52.68029,R,ugm-3,,,
06-01-2016,19:00,6.16042,R,ugm-3,21.21919,R,ugm-3,30.66503,R,ugm-3,,,
06-01-2016,20:00,3.08052,R,ugm-3,17.29235,R,ugm-3,22.01574,R,ugm-3,,,
06-01-2016,21:00,2.91806,R,ugm-3,7.39133,R,ugm-3,11.86563,R,ugm-3,,,
06-01-2016,22:00,2.48587,R,ugm-3,4.48003,R,ugm-3,8.29164,R,ugm-3,,,
06-01-2016,23:00,3.67455,R,ugm-3,3.94358,R,ugm-3,9.57780,R,ugm-3,,,
06-01-2016,24:00,0.75649,R,ugm-3,3.70021,R,ugm-3,4.86014,R,ugm-3,,,
07-01-2016,01:00,1.02809,R,ugm-3,6.42935,R,ugm-3,8.00573,R,ugm-3,,,
07-01-2016,02:00,1.13629,R,ugm-3,7.69303,R,ugm-3,9.43532,R,ugm-3,,,
07-01-2016,03:00,1.29875,R,ugm-3,8.15873,R,ugm-3,10.15012,R,ugm-3,,,
07-01-2016,04:00,2.00192,R,ugm-3,5.07960,R,ugm-3,8.14916,R,ugm-3,,,
07-01-2016,05:00,4.54454,R,ugm-3,6.61295,R,ugm-3,13.58114,R,ugm-3,,,
07-01-2016,06:00,9.30548,R,ugm-3,11.60696,R,ugm-3,25.87517,R,ugm-3,,,
07-01-2016,07:00,12.06420,R,ugm-3,12.95241,R,ugm-3,31.45058,R,ugm-3,,,
07-01-2016,08:00,38.19544,R,ugm-3,15.91630,R,ugm-3,74.48183,R,ugm-3,,,
07-01-2016,09:00,22.01921,R,ugm-3,,,,,,,,,
07-01-2016,10:00,,,,,,,,,,,,
07-01-2016,11:00,,,,,,,,,,,,
07-01-2016,12:00,,,,,,,,,,,,
07-01-2016,13:00,6.27548,R,ugm-3,,,,,,,,,
07-01-2016,14:00,8.43986,R,ugm-3,15.75709,R,ugm-3,30.68861,R,ugm-3,,,
07-01-2016,15:00,8.49380,R,ugm-3,15.71119,R,ugm-3,28.73483,R,ugm-3,,,
07-01-2016,16:00,6.65466,R,ugm-3,16.24382,R,ugm-3,26.44748,R,ugm-3,,,
07-01-2016,17:00,12.87650,R,ugm-3,19.85605,R,ugm-3,39.59975,R,ugm-3,,,
07-01-2016,18:00,21.20784,R,ugm-3,36.45990,R,ugm-3,68.97814,R,ugm-3,,,
07-01-2016,19:00,11.52349,R,ugm-3,33.36787,R,ugm-3,51.03698,R,ugm-3,,,
07-01-2016,20:00,10.38783,R,ugm-3,23.45729,R,ugm-3,39.38507,R,ugm-3,,,
07-01-2016,21:00,7.08716,R,ugm-3,24.58614,R,ugm-3,35.45297,R,ugm-3,,,
07-01-2016,22:00,25.21168,R,ugm-3,30.17734,R,ugm-3,68.83470,R,ugm-3,,,
07-01-2016,23:00,33.21809,R,ugm-3,34.41305,R,ugm-3,85.34675,R,ugm-3,,,
07-01-2016,24:00,9.79224,R,ugm-3,35.73602,R,ugm-3,50.75058,R,ugm-3,,,
08-01-2016,01:00,6.77034,R,ugm-3,22.26293,R,ugm-3,32.64398,R,ugm-3,,,
08-01-2016,02:00,10.34511,R,ugm-3,35.63992,R,ugm-3,51.50219,R,ugm-3,,,
08-01-2016,03:00,9.37034,R,ugm-3,32.13478,R,ugm-3,46.50244,R,ugm-3,,,
08-01-2016,04:00,16.03248,R,ugm-3,27.77667,R,ugm-3,52.35947,R,ugm-3,,,
08-01-2016,05:00,71.82141,R,ugm-3,35.45345,R,ugm-3,145.57807,R,ugm-3,,,
08-01-2016,06:00,134.11032,R,ugm-3,58.02190,R,ugm-3,263.65486,R,ugm-3,,,
08-01-2016,07:00,164.27939,R,ugm-3,74.69508,R,ugm-3,326.58663,R,ugm-3,,,
08-01-2016,08:00,241.78817,R,ugm-3,107.99935,R,ugm-3,478.73604,R,ugm-3,,,
08-01-2016,09:00,153.66331,R,ugm-3,103.83058,R,ugm-3,339.44437,R,ugm-3,,,
08-01-2016,10:00,63.85927,R,ugm-3,88.02138,R,ugm-3,185.93755,R,ugm-3,,,
08-01-2016,11:00,31.74004,R,ugm-3,56.40919,R,ugm-3,105.07658,R,ugm-3,,,
08-01-2016,12:00,66.40532,R,ugm-3,51.75799,R,ugm-3,153.57805,R,ugm-3,,,
08-01-2016,13:00,42.13941,R,ugm-3,58.10653,R,ugm-3,122.71939,R,ugm-3,,,
08-01-2016,14:00,36.72332,R,ugm-3,42.83952,R,ugm-3,99.14783,R,ugm-3,,,
08-01-2016,15:00,53.29713,R,ugm-3,59.35683,R,ugm-3,141.07795,R,ugm-3,,,
08-01-2016,16:00,147.92198,R,ugm-3,60.98819,R,ugm-3,287.79874,R,ugm-3,,,
08-01-2016,17:00,115.31507,R,ugm-3,90.19876,R,ugm-3,267.01273,R,ugm-3,,,
08-01-2016,18:00,68.13844,R,ugm-3,83.74551,R,ugm-3,188.22299,R,ugm-3,,,
08-01-2016,19:00,57.19744,R,ugm-3,77.94920,R,ugm-3,165.65071,R,ugm-3,,,
08-01-2016,20:00,67.48829,R,ugm-3,69.95590,R,ugm-3,173.43650,R,ugm-3,,,
08-01-2016,21:00,49.12647,R,ugm-3,54.89353,R,ugm-3,130.21973,R,ugm-3,,,
08-01-2016,22:00,40.46023,R,ugm-3,43.32386,R,ugm-3,105.36202,R,ugm-3,,,
08-01-2016,23:00,51.07631,R,ugm-3,46.04726,R,ugm-3,124.36318,R,ugm-3,,,
08-01-2016,24:00,13.54100,R,ugm-3,28.45370,R,ugm-3,49.21628,R,ugm-3,,,
09-01-2016,01:00,13.02181,R,ugm-3,24.60670,R,ugm-3,44.57320,R,ugm-3,,,
09-01-2016,02:00,6.65559,R,ugm-3,18.93885,R,ugm-3,29.14395,R,ugm-3,,,
09-01-2016,03:00,6.56516,R,ugm-3,19.64903,R,ugm-3,29.71547,R,ugm-3,,,
09-01-2016,04:00,2.76714,R,ugm-3,11.32917,R,ugm-3,15.57205,R,ugm-3,,,
09-01-2016,05:00,3.74377,R,ugm-3,11.40280,R,ugm-3,17.14317,R,ugm-3,,,
09-01-2016,06:00,5.20873,R,ugm-3,13.44296,R,ugm-3,21.42956,R,ugm-3,,,
09-01-2016,07:00,10.63448,R,ugm-3,23.90960,R,ugm-3,40.21557,R,ugm-3,,,
09-01-2016,08:00,32.82582,R,ugm-3,30.67172,R,ugm-3,81.00394,R,ugm-3,,,
09-01-2016,09:00,111.44501,R,ugm-3,52.05873,R,ugm-3,222.93869,R,ugm-3,,,
09-01-2016,10:00,48.77754,R,ugm-3,54.85767,R,ugm-3,129.64885,R,ugm-3,,,
09-01-2016,11:00,28.53947,R,ugm-3,45.60213,R,ugm-3,89.36204,R,ugm-3,,,
09-01-2016,12:00,30.11294,R,ugm-3,44.47471,R,ugm-3,90.64724,R,ugm-3,,,
09-01-2016,13:00,10.03765,R,ugm-3,26.75396,R,ugm-3,42.14481,R,ugm-3,,,
09-01-2016,14:00,11.88240,R,ugm-3,24.42549,R,ugm-3,42.64493,R,ugm-3,,,
09-01-2016,15:00,10.09190,R,ugm-3,21.74226,R,ugm-3,37.21629,R,ugm-3,,,
09-01-2016,16:00,10.41745,R,ugm-3,18.60002,R,ugm-3,34.57322,R,ugm-3,,,
09-01-2016,17:00,9.16953,R,ugm-3,18.51396,R,ugm-3,32.57370,R,ugm-3,,,
09-01-2016,18:00,6.40239,R,ugm-3,21.11304,R,ugm-3,30.92991,R,ugm-3,,,
09-01-2016,19:00,4.12357,R,ugm-3,17.53523,R,ugm-3,23.85796,R,ugm-3,,,
09-01-2016,20:00,7.59606,R,ugm-3,17.63994,R,ugm-3,29.28707,R,ugm-3,,,
09-01-2016,21:00,4.39486,R,ugm-3,14.19075,R,ugm-3,20.92944,R,ugm-3,,,
09-01-2016,22:00,5.26298,R,ugm-3,12.14533,R,ugm-3,20.21513,R,ugm-3,,,
09-01-2016,23:00,2.55011,R,ugm-3,9.44775,R,ugm-3,13.35786,R,ugm-3,,,
09-01-2016,24:00,2.49585,R,ugm-3,7.24503,R,ugm-3,11.07194,R,ugm-3,,,
10-01-2016,01:00,2.33588,R,ugm-3,8.56178,R,ugm-3,12.14342,R,ugm-3,,,
10-01-2016,02:00,3.15068,R,ugm-3,7.67008,R,ugm-3,12.50106,R,ugm-3,,,
10-01-2016,03:00,1.90120,R,ugm-3,10.29929,R,ugm-3,13.21442,R,ugm-3,,,
10-01-2016,04:00,1.35769,R,ugm-3,6.41835,R,ugm-3,8.50011,R,ugm-3,,,
10-01-2016,05:00,1.14097,R,ugm-3,5.46545,R,ugm-3,7.21491,R,ugm-3,,,
10-01-2016,06:00,2.93303,R,ugm-3,11.00357,R,ugm-3,15.50081,R,ugm-3,,,
10-01-2016,07:00,2.71568,R,ugm-3,16.98061,R,ugm-3,21.14460,R,ugm-3,,,
10-01-2016,08:00,4.78028,R,ugm-3,21.67149,R,ugm-3,29.00115,R,ugm-3,,,
10-01-2016,09:00,6.95307,R,ugm-3,19.76808,R,ugm-3,30.42931,R,ugm-3,,,
10-01-2016,10:00,9.01736,R,ugm-3,21.53188,R,ugm-3,35.35830,R,ugm-3,,,
10-01-2016,11:00,12.22167,R,ugm-3,22.83382,R,ugm-3,41.57345,R,ugm-3,,,
10-01-2016,12:00,11.13558,R,ugm-3,22.99925,R,ugm-3,40.07357,R,ugm-3,,,
10-01-2016,13:00,11.57027,R,ugm-3,17.90387,R,ugm-3,35.64470,R,ugm-3,,,
10-01-2016,14:00,15.64426,R,ugm-3,25.37218,R,ugm-3,49.35971,R,ugm-3,,,
10-01-2016,15:00,11.46113,R,ugm-3,24.42836,R,ugm-3,42.00185,R,ugm-3,,,
10-01-2016,16:00,15.59000,R,ugm-3,27.16945,R,ugm-3,51.07379,R,ugm-3,,,
10-01-2016,17:00,10.04918,R,ugm-3,29.52231,R,ugm-3,44.93084,R,ugm-3,,,
10-01-2016,18:00,3.69388,R,ugm-3,20.90888,R,ugm-3,26.57275,R,ugm-3,,,
10-01-2016,19:00,25.25876,R,ugm-3,30.27344,R,ugm-3,69.00300,R,ugm-3,,,
10-01-2016,20:00,22.48820,R,ugm-3,37.23638,R,ugm-3,71.71779,R,ugm-3,,,
10-01-2016,21:00,29.33307,R,ugm-3,25.81206,R,ugm-3,70.78880,R,ugm-3,,,
10-01-2016,22:00,9.61450,R,ugm-3,19.97415,R,ugm-3,34.71618,R,ugm-3,,,
10-01-2016,23:00,7.98490,R,ugm-3,15.32917,R,ugm-3,27.57251,R,ugm-3,,,
10-01-2016,24:00,7.27862,R,ugm-3,17.76952,R,ugm-3,28.92991,R,ugm-3,,,
11-01-2016,01:00,1.95889,R,ugm-3,10.91607,R,ugm-3,13.91965,R,ugm-3,,,
11-01-2016,02:00,4.40796,R,ugm-3,9.58784,R,ugm-3,16.34662,R,ugm-3,,,
11-01-2016,03:00,5.60443,R,ugm-3,11.39420,R,ugm-3,19.98754,R,ugm-3,,,
11-01-2016,04:00,8.48881,R,ugm-3,24.81756,R,ugm-3,37.83355,R,ugm-3,,,
11-01-2016,05:00,33.89943,R,ugm-3,35.11063,R,ugm-3,87.08903,R,ugm-3,,,
11-01-2016,06:00,109.04458,R,ugm-3,46.95283,R,ugm-3,214.15219,R,ugm-3,,,
11-01-2016,07:00,209.65523,R,ugm-3,44.59042,R,ugm-3,366.05728,R,ugm-3,,,
11-01-2016,08:00,293.07091,R,ugm-3,79.30133,R,ugm-3,528.67046,R,ugm-3,,,
11-01-2016,09:00,100.50182,R,ugm-3,90.31877,R,ugm-3,244.41941,R,ugm-3,,,
11-01-2016,10:00,15.61651,R,ugm-3,42.08504,R,ugm-3,66.03002,R,ugm-3,,,
11-01-2016,11:00,23.45205,R,ugm-3,26.00139,R,ugm-3,61.96070,R,ugm-3,,,
11-01-2016,12:00,49.62508,R,ugm-3,29.12929,R,ugm-3,105.22001,R,ugm-3,,,
11-01-2016,13:00,15.78022,R,ugm-3,24.41641,R,ugm-3,48.61240,R,ugm-3,,,
11-01-2016,14:00,24.10501,R,ugm-3,25.64328,R,ugm-3,62.60378,R,ugm-3,,,
11-01-2016,15:00,56.48086,R,ugm-3,29.18236,R,ugm-3,115.78514,R,ugm-3,,,
11-01-2016,16:00,58.05932,R,ugm-3,44.67935,R,ugm-3,133.70240,R,ugm-3,,,
11-01-2016,17:00,34.82462,R,ugm-3,51.75177,R,ugm-3,105.14877,R,ugm-3,,,
11-01-2016,18:00,12.67849,R,ugm-3,30.95668,R,ugm-3,50.39677,R,ugm-3,,,
11-01-2016,19:00,12.46084,R,ugm-3,23.29568,R,ugm-3,42.40204,R,ugm-3,,,
11-01-2016,20:00,17.79336,R,ugm-3,23.54240,R,ugm-3,50.82517,R,ugm-3,,,
11-01-2016,21:00,11.48109,R,ugm-3,27.22539,R,ugm-3,44.82948,R,ugm-3,,,
11-01-2016,22:00,5.71357,R,ugm-3,15.72410,R,ugm-3,24.48478,R,ugm-3,,,
11-01-2016,23:00,3.86320,R,ugm-3,8.71000,R,ugm-3,14.63349,R,ugm-3,,,
11-01-2016,24:00,2.88376,R,ugm-3,7.78483,R,ugm-3,12.20653,R,ugm-3,,,
12-01-2016,01:00,3.59503,R,ugm-3,7.55103,R,ugm-3,13.06333,R,ugm-3,,,
12-01-2016,02:00,1.67055,R,ugm-3,6.09960,R,ugm-3,8.66108,R,ugm-3,,,
12-01-2016,03:00,2.28786,R,ugm-3,10.05497,R,ugm-3,13.56297,R,ugm-3,,,
12-01-2016,04:00,5.01165,R,ugm-3,10.73247,R,ugm-3,18.41690,R,ugm-3,,,
12-01-2016,05:00,2.66922,R,ugm-3,12.46854,R,ugm-3,16.56129,R,ugm-3,,,
12-01-2016,06:00,5.44758,R,ugm-3,13.99042,R,ugm-3,22.34326,R,ugm-3,,,
12-01-2016,07:00,9.09749,R,ugm-3,20.88641,R,ugm-3,34.83571,R,ugm-3,,,
12-01-2016,08:00,14.43594,R,ugm-3,22.19456,R,ugm-3,44.32936,R,ugm-3,,,
12-01-2016,09:00,15.08984,R,ugm-3,18.55077,R,ugm-3,41.68820,R,ugm-3,,,
12-01-2016,10:00,10.07818,R,ugm-3,16.31267,R,ugm-3,31.76567,R,ugm-3,,,
12-01-2016,11:00,15.68885,R,ugm-3,15.34781,R,ugm-3,39.40372,R,ugm-3,,,
12-01-2016,12:00,8.22563,R,ugm-3,12.51492,R,ugm-3,25.12738,R,ugm-3,,,
12-01-2016,13:00,15.68916,R,ugm-3,13.99185,R,ugm-3,38.04823,R,ugm-3,,,
12-01-2016,14:00,19.01228,R,ugm-3,16.10564,R,ugm-3,45.25740,R,ugm-3,,,
12-01-2016,15:00,26.31179,R,ugm-3,18.76115,R,ugm-3,59.10533,R,ugm-3,,,
12-01-2016,16:00,32.46753,R,ugm-3,16.39060,R,ugm-3,66.17346,R,ugm-3,,,
12-01-2016,17:00,22.71614,R,ugm-3,22.20508,R,ugm-3,57.03601,R,ugm-3,,,
12-01-2016,18:00,15.03527,R,ugm-3,17.49220,R,ugm-3,40.54596,R,ugm-3,,,
12-01-2016,19:00,8.55242,R,ugm-3,12.72769,R,ugm-3,25.84122,R,ugm-3,,,
12-01-2016,20:00,7.62693,R,ugm-3,13.79008,R,ugm-3,25.48454,R,ugm-3,,,
12-01-2016,21:00,6.91846,R,ugm-3,15.80394,R,ugm-3,26.41210,R,ugm-3,,,
12-01-2016,22:00,8.11681,R,ugm-3,15.53715,R,ugm-3,27.98274,R,ugm-3,,,
12-01-2016,23:00,6.64624,R,ugm-3,13.00883,R,ugm-3,23.19958,R,ugm-3,,,
12-01-2016,24:00,4.24893,R,ugm-3,16.39921,R,ugm-3,22.91414,R,ugm-3,,,
13-01-2016,01:00,2.23734,R,ugm-3,12.40639,R,ugm-3,15.83693,R,ugm-3,,,
13-01-2016,02:00,1.30967,R,ugm-3,8.26439,R,ugm-3,10.27252,R,ugm-3,,,
13-01-2016,03:00,3.43787,R,ugm-3,15.41618,R,ugm-3,20.68751,R,ugm-3,,,
13-01-2016,04:00,2.56476,R,ugm-3,17.53954,R,ugm-3,21.47212,R,ugm-3,,,
13-01-2016,05:00,43.65550,R,ugm-3,34.85962,R,ugm-3,101.79712,R,ugm-3,,,
13-01-2016,06:00,134.73179,R,ugm-3,36.31407,R,ugm-3,242.89993,R,ugm-3,,,
13-01-2016,07:00,254.02044,R,ugm-3,73.97933,R,ugm-3,463.47190,R,ugm-3,,,
13-01-2016,08:00,297.29396,R,ugm-3,113.63262,R,ugm-3,569.47700,R,ugm-3,,,
13-01-2016,09:00,97.78832,R,ugm-3,95.38546,R,ugm-3,245.32546,R,ugm-3,,,
13-01-2016,10:00,72.19528,R,ugm-3,83.19423,R,ugm-3,193.89212,R,ugm-3,,,
13-01-2016,11:00,54.02368,R,ugm-3,53.13116,R,ugm-3,135.96632,R,ugm-3,,,
13-01-2016,12:00,21.22749,R,ugm-3,36.29112,R,ugm-3,68.83948,R,ugm-3,,,
13-01-2016,13:00,18.11703,R,ugm-3,32.57131,R,ugm-3,60.35037,R,ugm-3,,,
13-01-2016,14:00,23.24655,R,ugm-3,38.68844,R,ugm-3,74.33266,R,ugm-3,,,
13-01-2016,15:00,25.21105,R,ugm-3,34.32077,R,ugm-3,72.97718,R,ugm-3,,,
13-01-2016,16:00,32.19593,R,ugm-3,44.51153,R,ugm-3,93.87793,R,ugm-3,,,
13-01-2016,17:00,21.11835,R,ugm-3,37.74271,R,ugm-3,70.12373,R,ugm-3,,,
13-01-2016,18:00,5.40237,R,ugm-3,23.46112,R,ugm-3,31.74463,R,ugm-3,,,
13-01-2016,19:00,8.45825,R,ugm-3,21.41474,R,ugm-3,34.38388,R,ugm-3,,,
13-01-2016,20:00,3.49244,R,ugm-3,18.18644,R,ugm-3,23.54144,R,ugm-3,,,
13-01-2016,21:00,5.29323,R,ugm-3,16.85152,R,ugm-3,24.96769,R,ugm-3,,,
13-01-2016,22:00,3.32873,R,ugm-3,16.43937,R,ugm-3,21.54336,R,ugm-3,,,
13-01-2016,23:00,3.00132,R,ugm-3,9.73702,R,ugm-3,14.33897,R,ugm-3,,,
13-01-2016,24:00,2.45562,R,ugm-3,7.79105,R,ugm-3,11.55628,R,ugm-3,,,
14-01-2016,01:00,2.13070,R,ugm-3,7.36169,R,ugm-3,10.62872,R,ugm-3,,,
14-01-2016,02:00,5.19033,R,ugm-3,8.23475,R,ugm-3,16.19314,R,ugm-3,,,
14-01-2016,03:00,1.47524,R,ugm-3,11.14940,R,ugm-3,13.41141,R,ugm-3,,,
14-01-2016,04:00,1.36579,R,ugm-3,7.18000,R,ugm-3,9.27419,R,ugm-3,,,
14-01-2016,05:00,2.67671,R,ugm-3,11.94643,R,ugm-3,16.05066,R,ugm-3,,,
14-01-2016,06:00,5.84547,R,ugm-3,15.79103,R,ugm-3,24.75397,R,ugm-3,,,
14-01-2016,07:00,18.08304,R,ugm-3,19.63994,R,ugm-3,47.36689,R,ugm-3,,,
14-01-2016,08:00,65.61266,R,ugm-3,41.56819,R,ugm-3,142.17286,R,ugm-3,,,
14-01-2016,09:00,25.95008,R,ugm-3,25.19814,R,ugm-3,64.98771,R,ugm-3,,,
14-01-2016,10:00,48.94998,R,ugm-3,32.80511,R,ugm-3,107.86070,R,ugm-3,,,
14-01-2016,11:00,49.60575,R,ugm-3,35.08051,R,ugm-3,111.14159,R,ugm-3,,,
14-01-2016,12:00,61.67899,R,ugm-3,23.77429,R,ugm-3,118.34741,R,ugm-3,,,
14-01-2016,13:00,77.30391,R,ugm-3,31.41807,R,ugm-3,149.94908,R,ugm-3,,,
14-01-2016,14:00,47.25677,R,ugm-3,36.04298,R,ugm-3,108.50234,R,ugm-3,,,
14-01-2016,15:00,48.45823,R,ugm-3,39.05182,R,ugm-3,113.35340,R,ugm-3,,,
14-01-2016,16:00,40.53694,R,ugm-3,43.06520,R,ugm-3,105.22097,R,ugm-3,,,
14-01-2016,17:00,76.53901,R,ugm-3,43.93347,R,ugm-3,161.29164,R,ugm-3,,,
14-01-2016,18:00,22.45390,R,ugm-3,34.62438,R,ugm-3,69.05320,R,ugm-3,,,
14-01-2016,19:00,14.47741,R,ugm-3,29.37743,R,ugm-3,51.57582,R,ugm-3,,,
14-01-2016,20:00,16.55323,R,ugm-3,30.11853,R,ugm-3,55.49979,R,ugm-3,,,
14-01-2016,21:00,11.25408,R,ugm-3,23.90529,R,ugm-3,41.16130,R,ugm-3,,,
14-01-2016,22:00,5.51774,R,ugm-3,19.43196,R,ugm-3,27.89238,R,ugm-3,,,
14-01-2016,23:00,10.27058,R,ugm-3,18.63588,R,ugm-3,34.38388,R,ugm-3,,,
14-01-2016,24:00,2.94987,R,ugm-3,9.60123,R,ugm-3,14.12429,R,ugm-3,,,
15-01-2016,01:00,7.38339,R,ugm-3,11.20629,R,ugm-3,22.52734,R,ugm-3,,,
15-01-2016,02:00,4.22959,R,ugm-3,8.72228,R,ugm-3,15.20756,R,ugm-3,,,
15-01-2016,03:00,2.02343,R,ugm-3,6.80659,R,ugm-3,9.90914,R,ugm-3,,,
15-01-2016,04:00,1.69570,R,ugm-3,6.88165,R,ugm-3,9.48170,R,ugm-3,,,